Temp_Advection
nan nan nan nan nan nan nan nan nan nan nan nan nan nan nan nan nan nan nan nan nan nan nan nan nan nan nan nan nan nan nan nan nan nan nan nan nan nan nan nan nan nan nan nan nan nan nan nan nan
nan 0 -0 -0 -0 -0 -0 -0 -0 -0 -0 0 -0 -0 -0 -0 -0 -0 -0 -0 -0 -0 -0 -0 0 -0 -1 -0 -0 -1 -1 0 0 -0 -0 0 0 0 0 0 0 0 0 0 -0 0 0 -0 nan
nan -0 -0 -0 0 -0 -0 -0 -0 -0 0 -0 -0 -0 -0 -0 -0 -0 0 -0 -0 -0 -0 -0 -0 -0 -0 -1 -0 -0 -1 -1 0 -0 -0 0 0 0 0 -0 -0 0 0 0 0 0 0 0 nan
nan -0 -1 -0 -1 -0 0 0 -0 -0 -0 -0 -0 -0 -0 -0 0 -0 -0 0 -0 -0 -0 -1 -1 -1 -0 -0 -1 -0 -0 -0 -1 0 -0 -0 -0 0 -0 0 0 0 0 0 0 0 0 0 nan
nan -0 -0 -0 -0 -0 -0 -0 -0 -0 -0 -0 -0 -0 -0 0 0 -0 -0 -0 -0 -0 -1 -1 -1 -1 -1 -1 -1 -1 -1 -0 -0 -1 -0 -0 -0 -0 -0 0 0 0 0 0 0 0 0 0 nan
nan -0 -0 -0 -0 -0 -0 0 -0 -0 -0 -0 -0 -0 0 0 -0 -0 -0 -0 -1 -1 -1 -0 -1 -1 -1 -1 -1 -0 -1 -1 -0 -0 -0 -0 0 -0 0 0 0 0 0 0 0 0 0 -0 nan
nan -0 0 0 -0 -0 0 0 -0 -0 -0 -0 -0 0 0 -0 -0 -0 -0 -0 -0 -1 -1 -0 -0 -1 -1 -1 -1 -1 -0 -1 -1 -0 -0 -0 0 -0 0 0 0 0 0 0 0 0 0 0 nan
nan -0 -0 -0 0 0 0 -0 0 -0 -0 -0 0 0 -0 -0 0 -0 -0 -0 -0 -0 -0 -1 -0 -0 -1 -1 -1 -1 -1 -0 -1 -1 0 -0 -1 0 -0 0 0 -0 0 0 0 0 0 0 nan
nan -0 -0 -0 0 0 0 -0 -0 -0 0 -0 0 0 0 0 0 0 0 -0 -0 -0 -0 -0 -0 -0 -0 -1 -1 -1 -1 -1 -0 -1 -1 -0 0 0 -0 0 -0 -0 0 0 0 0 0 -0 nan
nan -0 0 0 0 0 0 0 -0 -0 -0 0 0 0 0 0 0 0 0 -0 -0 -0 -0 -0 -0 -0 -0 -0 -1 -1 -1 -1 -1 -1 -1 -0 1 -0 -1 -0 -0 -0 0 0 0 0 0 0 nan
nan -0 0 0 0 0 0 -0 -0 0 -0 -0 0 0 0 0 -0 0 0 0 -0 -0 -0 -0 -0 -0 -0 -0 -0 -1 -1 -1 -1 -1 -1 -1 -0 0 -1 -1 -0 0 1 0 0 0 0 1 nan
nan 0 0 0 -0 -0 -0 -0 -0 -0 -0 0 0 0 0 0 0 0 0 0 0 -0 -0 -0 -0 -1 -1 -0 -0 -0 -1 -1 -1 -1 -1 -1 -1 -1 -0 -0 0 -0 0 0 0 0 -0 0 nan
nan 0 0 0 -0 -0 -0 0 0 -0 -0 -0 -0 0 0 0 0 0 0 0 -0 -0 0 -0 -0 -1 -1 -1 -1 -0 -0 -1 -1 -1 -1 -1 -1 -1 -0 0 -1 -1 0 0 0 -0 0 0 nan
nan -0 0 0 -0 -0 -0 0 -0 -0 -0 -0 -0 0 0 0 0 0 0 0 -0 -0 -0 0 -0 -0 -0 -1 -1 -1 -0 -0 -1 -1 -1 -1 -1 -1 -0 -0 -1 -1 0 -0 0 0 0 0 nan
nan 0 -0 -0 -0 -0 0 0 -0 -0 0 -0 -0 -0 0 0 0 0 1 0 -0 -0 -0 0 -0 -0 -0 -0 -1 -1 -1 -1 -0 -1 -1 -0 -1 -1 -1 -1 -0 -0 -1 0 1 1 1 1 nan
nan 0 -0 -0 -0 -0 0 -0 0 0 0 0 -0 -0 -0 0 0 0 0 0 0 0 0 0 0 -0 -0 -0 -1 -1 -1 -1 -0 -0 -1 -1 -1 -1 -1 -1 -0 -1 -0 1 0 0 1 1 nan
nan -0 -0 0 -0 -0 0 -0 0 0 -0 -0 0 0 -0 -0 -0 0 0 0 0 0 0 0 -0 -0 -0 -0 -1 -1 -1 -1 -0 0 -0 -1 -1 -1 -1 -1 -0 -0 1 -0 -0 0 -0 1 nan
nan -0 -0 0 0 -0 -0 -0 -1 -0 -0 -1 -0 -0 -0 -0 0 1 0 0 0 0 0 0 -0 -0 -0 -0 -1 -1 -1 -1 -1 0 0 -0 -1 -1 -1 -1 -0 -0 -0 1 0 0 -0 1 nan
nan 0 -0 -0 -0 -0 -0 -0 -1 -0 -0 -1 -0 -0 -0 -0 0 1 0 0 0 1 0 -0 -0 -0 -1 -1 -1 -1 -2 -2 -2 -0 0 0 -1 -1 -1 -1 -0 -0 -0 0 0 0 1 1 nan
nan -0 -0 -0 0 -0 -0 0 0 -0 -0 -0 -0 -0 -0 -0 0 1 1 0 1 1 0 -0 -0 -0 -0 -1 -1 -0 -1 -2 -2 -1 -0 0 -0 -1 -1 -1 -1 -0 -0 0 0 -0 1 1 nan
nan -0 0 -0 -0 0 -1 -1 0 0 -0 -1 -0 -0 -0 -0 0 1 1 1 1 0 0 0 -0 -0 0 0 -1 -1 -1 -2 -2 -1 -1 0 -0 -1 -1 -1 -1 -0 -0 -1 0 -0 1 -0 nan
nan -0 0 0 -0 -0 0 -1 0 0 0 -1 -2 -1 -0 0 0 0 1 1 1 1 0 -1 -0 -0 -0 -0 -0 -1 -0 -1 -2 -1 -1 -1 -0 -0 -1 -1 -1 -1 -1 -0 0 -1 0 0 nan
nan 0 0 -0 -0 -0 -0 0 -0 0 -0 -0 -1 -1 0 0 0 0 1 1 1 1 -0 -0 -0 -0 -0 -0 -0 -0 -1 -1 -1 -1 -2 -1 -0 -1 -1 -0 -1 -1 -1 -1 -0 1 1 2 nan
nan -0 -0 -0 0 0 0 1 -1 -0 0 0 -0 -1 0 0 0 0 0 1 1 1 0 0 -1 -1 -1 0 1 1 -1 -1 -1 -1 -2 -3 -1 -1 -0 -0 -1 -1 -1 -1 0 0 1 0 nan
nan 0 0 1 1 1 -0 -0 -2 0 0 -0 -1 -1 0 0 0 1 1 0 1 1 0 -0 -0 -0 -1 -1 -2 -1 2 1 -1 -1 -1 -2 -2 -2 -1 -0 -1 -1 -1 -0 -1 -0 -0 1 nan
nan 0 1 -1 -0 1 -0 -1 -0 1 -0 -0 -0 -1 -0 0 0 1 1 1 0 -0 0 0 0 -0 -0 0 -0 -1 -1 -0 1 0 -1 -1 -2 -2 -2 -1 -1 -1 -1 -1 -1 0 -1 0 nan
nan -0 0 -1 0 -0 -0 -0 -0 0 0 -0 -1 -1 -1 0 0 0 1 0 0 -0 0 0 0 -0 -0 0 -0 -0 -0 -0 -0 -0 0 -0 -1 -1 -2 -1 -1 -1 -1 -1 -0 -2 -1 0 nan
nan 0 -0 0 -0 0 0 -0 -1 -0 0 0 0 -1 -0 0 1 0 0 0 0 0 -0 -0 0 0 0 -0 -0 -0 -0 -0 -0 -0 -0 -0 -0 -1 -1 -1 -2 -2 -1 -1 -1 -2 1 -0 nan
nan -0 -0 0 0 0 -1 0 1 0 1 0 -1 -1 1 0 1 1 0 -0 -0 0 -0 -0 0 1 0 -0 -0 -0 -0 -0 -0 -0 -0 -0 -0 -0 -0 -1 -2 -2 -2 -0 -1 -1 1 -1 nan
nan nan nan nan nan nan nan nan nan nan nan nan nan nan nan nan nan nan nan nan nan nan nan nan nan nan nan nan nan nan nan nan nan nan nan nan nan nan nan nan nan nan nan nan nan nan nan nan nan
Wind_Speed
4 2 3 2 3 4 3 4 2 9 5 7 5 6 6 5 3 1 1 11 14 17 20 24 25 23 21 24 19 12 6 7 7 7 8 13 15 15 15 17 18 17 17 17 16 16 18 18 21
3 3 3 3 4 3 2 4 7 5 7 3 3 2 4 3 4 1 1 9 16 20 21 22 25 27 25 22 24 19 13 5 10 10 13 10 16 17 17 18 19 19 18 18 18 18 19 19 20
4 3 3 4 3 3 2 2 4 5 8 5 2 6 2 1 2 1 6 12 15 20 22 22 25 27 30 28 22 26 17 13 9 13 14 16 16 19 19 19 21 21 20 20 20 21 20 21 21
2 3 6 4 5 2 2 2 5 5 3 12 4 4 2 2 1 2 7 11 16 20 24 26 26 27 28 31 25 22 21 18 15 15 18 17 16 21 20 21 21 21 20 20 21 22 21 21 21
5 4 4 5 3 3 1 2 4 5 3 7 7 2 2 2 1 3 6 11 16 20 23 24 26 28 27 28 30 22 20 19 19 14 15 20 18 21 22 22 22 23 22 22 23 23 23 22 22
5 4 5 2 3 2 0 6 1 3 4 5 4 1 3 5 3 5 9 14 18 22 24 24 23 26 26 24 25 25 18 18 18 19 17 17 21 22 22 23 22 23 24 23 24 25 24 23 23
7 4 3 2 1 2 2 7 1 3 7 2 3 2 3 7 5 6 10 15 17 18 20 25 28 24 23 24 21 22 21 14 17 16 20 22 23 23 24 24 26 25 25 25 27 27 26 26 25
6 6 4 2 1 2 3 7 2 1 3 5 3 3 3 8 7 6 9 13 16 16 16 17 20 26 23 19 21 18 20 19 12 17 17 22 20 24 29 26 26 27 28 28 29 29 28 28 27
4 5 2 2 1 3 3 4 1 6 6 4 5 5 8 7 6 6 8 11 10 11 12 13 15 20 27 26 19 18 16 18 15 10 17 15 23 20 28 29 30 31 31 31 32 31 31 30 28
8 4 3 3 2 3 4 3 5 4 5 5 6 6 8 9 7 7 9 10 9 9 10 14 18 23 27 31 31 22 18 17 17 16 12 16 14 20 23 32 32 35 34 34 34 33 33 32 32
6 3 4 2 1 3 4 5 2 3 4 8 7 11 12 12 10 10 8 6 6 7 8 13 19 24 28 31 34 34 25 19 17 18 17 14 18 13 26 27 35 34 33 38 37 36 36 36 36
6 3 2 2 1 2 4 8 5 8 8 9 15 13 13 13 12 11 9 6 6 6 6 13 21 26 28 31 34 37 35 27 21 20 19 19 17 18 11 22 26 32 42 39 40 41 40 39 38
5 2 2 1 4 3 7 7 6 14 13 12 10 10 12 14 14 13 11 9 10 11 11 17 22 27 30 32 34 38 39 37 27 22 22 19 18 16 10 18 20 32 32 28 47 47 44 42 40
3 2 2 2 5 6 8 8 5 4 5 7 9 11 15 18 15 15 15 12 14 14 15 18 22 26 30 33 34 37 41 41 33 25 24 21 19 17 12 14 32 23 24 21 48 49 48 45 43
1 4 2 5 7 3 18 1 5 4 4 7 15 18 19 20 19 19 16 17 17 16 17 19 23 27 32 35 37 38 40 40 36 30 25 24 20 18 17 15 15 30 23 35 39 50 52 49 46
6 4 6 2 10 6 9 6 6 7 10 23 19 19 22 23 22 21 19 20 20 20 20 21 24 27 32 37 40 41 41 41 38 31 28 24 22 17 19 18 17 19 42 31 12 42 58 53 49
8 2 3 8 6 5 6 9 9 8 20 21 19 17 23 30 31 26 24 23 23 23 24 25 26 30 35 39 42 44 45 43 41 33 27 25 22 18 20 20 18 18 37 38 36 48 50 55 51
5 5 4 7 5 2 11 21 19 25 16 18 20 16 14 18 23 24 27 26 26 26 26 27 29 32 38 43 46 48 49 47 43 34 27 23 22 20 22 22 20 20 26 42 36 34 57 58 55
3 3 5 4 2 10 4 16 19 21 13 14 15 14 13 15 15 18 25 26 27 26 25 27 32 37 43 48 51 51 50 49 44 35 27 24 21 20 23 25 21 22 22 31 37 20 57 60 58
3 2 5 11 2 7 10 22 9 4 6 9 13 16 13 14 12 15 21 25 26 27 28 30 37 44 49 50 49 45 44 43 41 33 27 24 23 21 23 27 25 24 24 26 29 21 45 62 63
2 3 3 6 9 1 9 7 4 2 9 13 16 18 17 14 15 17 22 25 26 27 28 35 45 52 50 43 41 40 40 41 38 33 29 25 23 23 24 29 28 26 25 26 37 22 43 58 63
4 2 3 9 5 3 7 4 5 4 8 8 21 20 21 17 16 20 23 26 26 24 29 44 51 44 40 39 39 38 39 40 39 37 34 28 25 23 26 29 30 29 27 25 24 26 29 62 61
5 3 3 2 2 2 3 2 7 3 7 9 14 21 22 21 21 22 24 27 24 24 39 48 38 40 39 39 37 36 39 40 39 39 36 33 28 27 26 29 31 31 30 30 24 34 33 54 66
6 1 2 2 2 2 3 3 6 4 7 4 7 14 16 18 20 22 22 26 29 31 48 39 38 38 38 37 38 39 40 40 41 40 38 36 32 30 26 31 31 33 33 33 30 23 26 38 61
5 4 4 6 4 4 4 1 12 7 7 6 9 17 17 19 20 21 22 24 28 42 41 39 39 39 37 37 37 37 40 42 43 42 40 38 36 33 31 29 31 33 34 34 35 26 21 43 41
4 3 4 5 4 6 2 7 6 5 5 13 19 21 20 21 21 24 23 30 37 40 40 41 40 39 37 37 39 39 39 40 42 39 40 41 39 36 33 30 31 33 35 35 38 31 23 34 30
1 2 0 5 2 2 4 8 12 5 7 9 18 16 15 19 22 24 28 37 38 40 40 40 41 40 37 36 37 37 37 38 41 39 37 41 40 37 35 33 33 33 36 36 37 38 34 33 27
3 3 2 3 5 7 4 7 6 6 7 4 8 16 18 23 29 31 36 36 38 40 41 41 39 38 37 35 36 38 38 39 40 40 39 37 39 40 37 34 34 33 38 37 37 41 33 29 31
2 2 4 3 2 3 5 8 8 10 6 7 11 18 24 32 35 37 39 35 40 41 42 42 40 38 37 34 33 35 36 36 35 37 39 38 40 38 37 35 35 34 39 38 37 41 45 29 24
3 5 4 4 4 2 1 11 4 9 7 10 24 27 33 34 38 39 37 40 42 42 43 41 40 37 34 34 33 33 33 33 35 36 36 37 39 38 38 34 34 35 38 41 40 41 46 45 32
Wind_Direction
34 79 110 93 63 58 56 41 3 15 26 354 9 39 90 59 18 11 291 346 346 349 350 346 349 352 352 344 340 329 165 196 217 225 211 215 214 218 207 197 193 187 182 176 173 169 157 152 146
47 75 65 84 77 53 55 350 26 5 339 9 37 60 50 83 50 21 259 334 348 346 344 343 344 344 346 349 340 337 322 203 206 221 220 204 214 211 212 201 198 191 184 178 174 171 161 155 154
67 69 63 82 80 82 96 21 313 323 39 57 71 53 70 78 46 147 352 348 344 338 339 340 339 338 340 341 343 340 321 303 212 214 222 217 212 209 212 209 202 195 187 182 176 171 164 162 161
87 68 65 71 66 49 111 308 335 349 355 34 23 67 76 57 176 23 345 337 337 335 336 337 335 335 334 334 341 333 331 318 301 211 220 223 223 208 207 215 206 199 193 188 183 177 170 168 166
52 62 62 74 84 109 66 345 341 355 12 359 11 141 168 164 167 318 322 331 331 333 334 333 333 331 332 329 328 336 331 317 301 273 224 220 227 211 211 204 208 202 197 194 187 182 173 172 170
62 56 49 61 78 106 163 349 5 2 338 328 15 149 220 192 240 294 323 335 339 336 335 334 336 332 332 330 324 326 327 317 308 297 256 219 227 220 212 200 203 211 203 199 191 185 177 174 175
89 67 111 106 82 144 264 345 62 333 316 305 313 210 220 210 234 288 327 334 338 335 329 327 332 339 333 331 328 320 320 325 303 300 285 233 224 225 218 209 199 208 209 201 194 187 181 177 178
79 92 92 48 62 252 263 327 289 329 281 321 322 221 254 228 233 289 323 333 336 335 334 333 331 337 353 342 333 329 317 316 316 294 298 273 233 223 229 209 201 202 213 205 198 191 185 183 180
68 64 79 86 163 273 289 346 289 303 265 263 258 266 275 230 240 292 314 327 336 347 357 9 4 5 4 9 356 335 327 315 316 293 288 288 259 245 227 221 205 205 206 208 200 194 190 186 182
54 79 163 150 184 243 298 273 306 297 277 263 236 261 245 237 253 283 304 328 339 359 23 36 29 22 16 10 12 2 338 327 317 313 289 284 277 254 238 227 215 213 191 206 201 197 194 187 181
36 106 172 156 199 284 282 296 294 270 271 242 256 296 244 235 249 267 290 305 323 347 22 30 22 14 11 8 6 6 360 337 324 315 307 285 289 294 253 237 223 216 207 200 200 199 197 189 182
91 94 164 161 326 345 305 304 291 256 248 279 295 284 253 234 255 266 284 279 286 304 332 0 358 359 0 2 2 0 359 352 333 318 310 302 288 297 271 260 240 230 203 197 200 200 198 193 186
72 141 172 261 18 13 324 287 262 274 285 279 283 262 244 249 258 264 270 259 266 282 303 324 339 346 351 354 355 356 355 352 341 324 313 304 298 298 289 247 263 237 205 204 204 202 197 192 187
73 141 198 109 356 335 341 297 292 232 291 289 281 258 254 259 254 262 262 254 260 280 299 313 326 335 341 345 347 348 350 349 341 330 315 307 299 296 279 241 243 259 222 229 203 206 198 192 186
53 147 146 31 339 349 339 56 223 256 255 294 293 268 256 250 253 259 258 256 261 275 289 305 318 328 333 336 336 338 341 343 338 331 319 308 300 292 275 260 238 231 253 218 199 203 197 190 184
40 52 350 46 2 7 24 268 242 227 300 298 291 261 252 249 258 263 255 255 263 273 284 297 308 317 322 325 326 327 330 335 333 324 317 309 299 287 275 262 245 230 227 250 222 196 186 186 182
22 297 329 317 56 340 59 274 258 251 311 297 295 281 261 259 258 259 255 254 261 270 281 291 301 309 316 319 319 321 322 324 327 318 311 306 299 282 271 260 248 240 212 243 249 199 197 186 180
303 328 297 253 335 354 279 261 276 294 294 288 296 298 281 274 274 255 247 253 260 266 275 287 298 308 312 312 313 314 314 316 318 314 306 299 295 280 266 259 248 235 222 218 242 208 201 190 180
213 227 260 266 313 333 271 283 287 294 274 274 287 288 286 281 284 255 245 252 258 265 274 286 299 307 309 311 312 312 312 311 311 308 304 297 288 277 263 259 244 237 221 209 225 215 188 181 182
174 206 280 289 240 326 315 301 291 264 237 246 277 280 278 280 275 257 247 252 257 266 276 291 298 304 308 307 308 305 304 302 302 301 299 292 286 272 261 259 247 238 231 206 207 211 175 179 186
189 198 303 263 318 344 311 289 317 285 257 263 261 267 268 269 270 259 253 257 261 268 284 298 306 308 305 305 303 300 297 297 296 295 292 286 280 271 257 257 250 240 232 220 209 212 186 174 186
326 125 314 302 8 296 357 290 298 292 283 257 261 255 257 258 267 264 263 263 265 276 296 310 308 303 302 302 301 297 294 293 294 294 291 286 278 268 258 253 250 242 234 220 213 209 187 191 175
252 313 264 113 89 4 10 71 267 351 282 260 250 247 252 258 263 270 275 273 272 279 310 313 307 306 303 301 296 293 290 290 290 289 287 283 275 268 255 252 249 243 237 224 207 202 193 191 187
309 179 123 84 121 12 243 84 277 213 211 254 255 248 261 268 270 274 283 277 270 283 311 312 310 305 302 299 298 295 291 289 287 284 284 280 274 268 255 251 247 244 236 228 216 202 199 190 192
8 30 336 352 2 241 161 316 248 251 228 227 260 278 281 285 285 287 284 301 285 302 313 316 312 306 303 297 293 288 286 285 285 283 280 276 274 268 260 250 246 241 238 229 224 206 221 191 192
24 129 136 287 296 293 178 232 251 215 263 251 263 272 283 292 305 299 291 308 310 314 318 317 312 306 303 295 289 283 284 281 280 277 278 277 272 268 262 252 245 238 236 230 224 213 216 198 190
125 51 306 97 88 345 257 280 277 264 265 258 259 268 289 305 307 309 306 313 317 319 319 318 314 309 304 295 291 284 279 275 275 272 269 271 273 269 265 254 246 236 234 229 223 216 204 211 192
119 128 52 25 323 305 284 285 246 282 269 253 254 260 291 309 314 314 319 322 322 322 321 320 318 310 302 291 286 283 280 276 273 270 267 262 265 269 265 258 249 237 233 228 224 216 193 208 198
96 22 44 115 112 215 300 264 219 237 242 247 265 281 302 315 319 321 322 324 325 326 323 323 320 309 300 295 292 286 282 277 271 265 265 259 261 260 260 257 249 240 231 227 223 219 206 202 192
119 177 163 142 212 113 155 267 227 232 262 262 277 297 313 316 320 322 324 327 328 327 326 324 319 311 306 301 295 287 283 278 271 267 262 260 256 254 256 252 248 241 231 228 221 218 211 200 199
Height
1513 1513 1514 1515 1524 1530 1549 1557 1559 1557 1557 1560 1558 1557 1559 1561 1560 1557 1562 1561 1560 1557 1554 1551 1547 1544 1543 1539 1535 1535 1533 1534 1534 1536 1536 1537 1539 1540 1542 1544 1544 1544 1546 1547 1549 1551 1552 1554 1555
1513 1514 1515 1516 1531 1537 1556 1563 1565 1566 1564 1561 1560 1559 1559 1562 1562 1562 1562 1560 1558 1556 1554 1551 1549 1543 1541 1540 1537 1534 1532 1531 1532 1534 1534 1534 1536 1538 1540 1542 1543 1544 1545 1547 1548 1551 1553 1554 1556
1514 1515 1517 1525 1545 1549 1558 1568 1566 1563 1562 1559 1560 1560 1561 1561 1561 1561 1562 1560 1558 1557 1554 1550 1549 1545 1540 1538 1537 1535 1531 1531 1530 1530 1531 1533 1533 1535 1537 1540 1541 1543 1544 1546 1548 1550 1553 1554 1556
1514 1516 1521 1533 1553 1567 1566 1567 1566 1564 1563 1561 1560 1562 1563 1562 1562 1562 1561 1560 1558 1556 1554 1550 1547 1544 1541 1536 1536 1536 1534 1530 1528 1529 1529 1530 1531 1532 1534 1537 1539 1542 1544 1544 1547 1549 1552 1554 1556
1515 1516 1531 1548 1562 1567 1569 1567 1566 1565 1564 1563 1560 1562 1563 1563 1562 1561 1561 1559 1558 1555 1551 1549 1545 1542 1540 1537 1531 1532 1529 1530 1527 1526 1527 1527 1528 1530 1531 1533 1538 1540 1542 1544 1546 1548 1551 1554 1555
1516 1522 1541 1551 1561 1566 1566 1565 1563 1564 1563 1561 1561 1562 1561 1559 1560 1560 1560 1560 1556 1553 1549 1547 1544 1541 1537 1536 1532 1529 1529 1526 1525 1523 1523 1524 1526 1527 1529 1531 1533 1539 1541 1543 1544 1547 1549 1552 1555
1521 1533 1554 1558 1563 1564 1564 1563 1563 1563 1563 1562 1560 1560 1559 1558 1559 1559 1559 1557 1555 1554 1550 1545 1540 1539 1536 1533 1530 1527 1525 1526 1524 1520 1520 1520 1523 1524 1526 1528 1531 1534 1539 1541 1543 1545 1548 1550 1554
1525 1534 1554 1564 1564 1561 1563 1562 1561 1560 1561 1561 1560 1560 1558 1555 1556 1556 1556 1555 1553 1551 1549 1545 1541 1536 1535 1532 1527 1525 1522 1522 1521 1520 1516 1513 1517 1520 1523 1525 1529 1532 1536 1539 1541 1543 1546 1549 1551
1529 1543 1557 1562 1563 1561 1562 1563 1562 1561 1558 1558 1557 1556 1557 1556 1555 1555 1554 1553 1551 1549 1547 1544 1541 1537 1533 1530 1527 1523 1521 1519 1517 1518 1515 1514 1514 1516 1519 1521 1524 1526 1531 1536 1538 1541 1543 1546 1550
1533 1551 1559 1562 1563 1563 1562 1562 1560 1560 1558 1556 1554 1553 1553 1555 1555 1554 1553 1551 1549 1547 1545 1542 1539 1536 1533 1529 1524 1523 1520 1517 1514 1513 1513 1511 1511 1509 1512 1516 1519 1522 1522 1528 1535 1538 1540 1544 1547
1543 1555 1558 1560 1560 1560 1560 1560 1559 1559 1557 1553 1553 1552 1550 1551 1553 1551 1549 1547 1547 1545 1543 1540 1537 1535 1532 1529 1523 1520 1518 1515 1512 1510 1509 1509 1506 1505 1508 1509 1514 1517 1517 1523 1528 1533 1537 1540 1543
1552 1557 1557 1558 1559 1559 1559 1558 1557 1556 1552 1551 1551 1551 1550 1549 1549 1550 1548 1546 1544 1543 1541 1538 1536 1534 1532 1529 1523 1520 1516 1514 1511 1508 1506 1504 1503 1501 1500 1504 1509 1511 1514 1513 1523 1527 1532 1537 1540
1552 1559 1558 1557 1558 1558 1558 1557 1556 1550 1550 1550 1548 1546 1548 1548 1548 1546 1546 1545 1542 1540 1540 1537 1534 1532 1530 1527 1524 1520 1515 1512 1510 1506 1504 1502 1502 1502 1504 1500 1501 1507 1505 1510 1515 1520 1525 1532 1536
1557 1558 1558 1557 1558 1559 1558 1554 1554 1548 1548 1546 1546 1546 1545 1545 1543 1544 1543 1541 1538 1538 1536 1534 1532 1530 1527 1525 1522 1518 1514 1509 1507 1505 1502 1500 1498 1500 1502 1501 1504 1499 1497 1501 1510 1513 1518 1527 1533
1555 1558 1558 1559 1558 1557 1553 1550 1550 1545 1544 1545 1545 1542 1539 1538 1539 1537 1538 1537 1535 1535 1533 1530 1528 1526 1523 1520 1518 1515 1512 1508 1504 1501 1500 1497 1495 1494 1495 1498 1494 1497 1500 1502 1501 1507 1511 1521 1529
1560 1561 1561 1560 1558 1557 1553 1542 1542 1543 1543 1538 1536 1534 1534 1533 1535 1537 1535 1533 1533 1531 1529 1527 1525 1522 1519 1516 1513 1511 1509 1507 1503 1499 1495 1494 1492 1491 1489 1489 1491 1493 1496 1495 1499 1501 1495 1512 1523
1573 1571 1574 1561 1561 1561 1559 1548 1538 1538 1537 1532 1530 1529 1528 1528 1529 1531 1530 1529 1528 1526 1524 1522 1520 1518 1515 1511 1508 1505 1504 1502 1500 1495 1492 1489 1488 1487 1486 1486 1485 1486 1487 1491 1491 1495 1497 1506 1516
1579 1583 1579 1574 1563 1561 1558 1547 1537 1535 1534 1530 1527 1524 1522 1523 1521 1521 1522 1523 1522 1520 1519 1517 1515 1514 1509 1505 1501 1498 1496 1494 1493 1491 1487 1485 1483 1483 1482 1482 1482 1482 1483 1488 1493 1492 1492 1498 1507
1586 1591 1589 1574 1570 1566 1553 1546 1532 1530 1529 1526 1525 1522 1519 1515 1516 1516 1518 1518 1518 1518 1517 1515 1511 1508 1504 1499 1493 1490 1486 1483 1484 1483 1481 1479 1477 1478 1478 1477 1478 1478 1478 1480 1486 1482 1485 1487 1501
1585 1591 1584 1569 1569 1570 1556 1535 1526 1524 1523 1521 1521 1519 1514 1512 1510 1510 1512 1513 1513 1511 1511 1509 1506 1501 1496 1492 1488 1483 1478 1475 1474 1473 1473 1473 1471 1471 1471 1472 1472 1473 1473 1475 1481 1481 1478 1478 1492
1581 1585 1586 1584 1571 1569 1566 1532 1525 1523 1520 1517 1515 1513 1511 1508 1506 1505 1506 1506 1507 1508 1506 1503 1498 1492 1487 1483 1478 1474 1470 1466 1465 1464 1463 1466 1464 1464 1463 1465 1466 1467 1467 1470 1474 1476 1477 1473 1488
1585 1579 1580 1579 1579 1567 1574 1546 1527 1524 1519 1513 1508 1507 1505 1503 1502 1501 1500 1501 1501 1502 1499 1496 1490 1484 1479 1474 1469 1466 1462 1458 1457 1454 1454 1456 1456 1457 1457 1457 1460 1460 1462 1464 1466 1466 1470 1473 1475
1576 1579 1579 1581 1590 1590 1574 1577 1519 1527 1514 1506 1500 1500 1499 1499 1497 1497 1496 1496 1497 1494 1491 1486 1480 1474 1469 1465 1461 1457 1453 1450 1447 1446 1444 1444 1446 1448 1450 1449 1451 1453 1455 1458 1460 1463 1469 1472 1474
1576 1578 1579 1584 1585 1573 1591 1574 1519 1515 1507 1503 1498 1496 1495 1495 1493 1492 1491 1490 1488 1486 1482 1476 1471 1465 1461 1456 1452 1447 1443 1441 1438 1436 1435 1434 1436 1437 1440 1442 1443 1446 1449 1451 1455 1459 1460 1465 1470
1579 1575 1564 1554 1556 1538 1592 1579 1513 1498 1498 1497 1495 1492 1492 1491 1489 1487 1485 1485 1483 1479 1472 1466 1461 1455 1451 1447 1443 1439 1434 1431 1428 1428 1426 1425 1425 1427 1430 1433 1435 1437 1441 1444 1447 1450 1458 1458 1463
1590 1594 1580 1567 1557 1556 1583 1561 1493 1492 1490 1490 1489 1487 1487 1486 1485 1484 1482 1479 1475 1468 1461 1456 1449 1442 1439 1436 1432 1430 1426 1422 1418 1418 1417 1415 1416 1417 1419 1422 1426 1429 1432 1435 1438 1441 1447 1452 1457
1589 1588 1596 1614 1635 1607 1555 1532 1496 1486 1485 1484 1483 1484 1482 1481 1480 1478 1477 1472 1464 1458 1452 1445 1439 1433 1427 1423 1420 1417 1415 1413 1409 1409 1409 1407 1407 1408 1409 1412 1414 1420 1423 1427 1431 1434 1442 1446 1448
1593 1597 1588 1607 1573 1561 1541 1553 1505 1486 1479 1482 1481 1479 1477 1474 1473 1470 1466 1460 1455 1448 1441 1434 1427 1419 1415 1412 1408 1405 1403 1402 1400 1398 1397 1398 1397 1399 1401 1403 1404 1409 1414 1418 1420 1424 1432 1439 1444
1599 1605 1607 1604 1608 1587 1581 1523 1491 1482 1477 1479 1475 1473 1471 1467 1463 1459 1456 1451 1445 1438 1432 1423 1415 1409 1404 1400 1396 1393 1391 1390 1388 1386 1386 1387 1389 1390 1391 1393 1395 1398 1403 1407 1412 1417 1424 1431 1438
1590 1591 1593 1579 1590 1629 1624 1540 1475 1474 1474 1473 1468 1465 1463 1459 1455 1451 1447 1442 1436 1429 1421 1414 1406 1399 1393 1389 1384 1380 1378 1378 1376 1375 1375 1376 1377 1378 1380 1383 1385 1389 1393 1397 1403 1409 1415 1424 1432